Tracking 27422 objects as of 31-May-2023
HD Live streaming from Space Station
objects crossing your sky now

USA 181

Track USA 181 now!
10-day predictions
USA 181 is classified as:


NORAD ID: 28537
Int'l Code: 2005-004A
Perigee: 778.3 km
Apogee: 1,448.1 km
Inclination: 63.4 °
Period: 107.4 minutes
Semi major axis: 7484 km
RCS: Unknown
Launch date: February 3, 2005
Source: United States (US)
Launch site: AIR FORCE EASTERN TEST RANGE (AFETR)
Your satellite tracking list
Your tracking list is empty




NASA's NSSDC Master Catalog

Two Line Element Set (TLE):
1 28537U 05004A   23045.81191416 0.00000132  00000-0  13234-3 0    04
2 28537  63.4078 307.3521 0447509   0.2638 359.7362 13.40867148    01
Source of the keplerian elements: McCants